Location: Township of Marena
(38.1747°N, 99.6798°W)
Time: 02:54:58
(UTC+00:00)

Cosmos 1892 Rocket - Pass Details

Date: 26 October 2020
Orbit: 607 x 632 km, 82.5° (Epoch: 23 November)

Event Time Altitude Azimuth Distance (km) Brightness Sun altitude
Rises 11:23:48 0° 175° (S) 2,850 7.0 -19.3°
Reaches altitude 10° 11:26:02 10° 171° (S) 1,952 6.2 -18.9°
Maximum altitude 11:30:15 55° 94° (E) 737 4.3 -18.0°
Drops below altitude 10° 11:34:31 10° 17° (NNE) 1,978 6.3 -17.2°
Sets 11:36:47 0° 13° (NNE) 2,891 7.1 -16.8°
